| time (UTC) | temp F | wind direction | speed knots | gust knots | rain 1hr in | rain 24hr in | rain mn in | humidity % | barometer mb |
| 20260504205035 | 80 | 166 | 0.9 | 2.6 | 0.00 | 0.00 | 0.00 | ||
| 20260504204516 | 79 | 130 | 0.9 | 1.7 | 0.00 | 0.00 | 0.00 | ||
| 20260504204036 | 80 | 168 | 0.9 | 3.5 | 0.00 | 0.00 | 0.00 | ||
| 20260504203535 | 80 | 253 | 1.7 | 4.3 | 0.00 | 0.00 | 0.00 | ||
| 20260504203016 | 79 | 241 | 0.9 | 2.6 | 0.00 | 0.00 | 0.00 | ||
| 20260504202516 | 80 | 159 | 0.9 | 1.7 | 0.00 | 0.00 | 0.00 | ||
| 20260504202015 | 80 | 189 | 0.9 | 3.5 | 0.00 | 0.00 | 0.00 | ||
| 20260504201516 | 80 | 227 | 1.7 | 4.3 | 0.00 | 0.00 | 0.00 | ||
| 20260504201036 | 80 | 358 | 0.0 | 1.7 | 0.00 | 0.00 | 0.00 | ||
| 20260504200536 | 80 | 17 | 0.9 | 6.1 | 0.00 | 0.00 | 0.00 | ||
| 20260504200015 | 80 | 296 | 1.7 | 5.2 | 0.00 | 0.00 | 0.00 | ||
| 20260504195515 | 80 | 266 | 2.6 | 5.2 | 0.00 | 0.00 | 0.00 | ||
| 20260504195016 | 80 | 261 | 1.7 | 3.5 | 0.00 | 0.00 | 0.00 | ||
| 20260504194515 | 79 | 184 | 0.9 | 3.5 | 0.00 | 0.00 | 0.00 | ||
| 20260504194015 | 79 | 131 | 0.9 | 1.7 | 0.00 | 0.00 | 0.00 | ||
| 20260504193516 | 80 | 264 | 1.7 | 5.2 | 0.00 | 0.00 | 0.00 | ||
| 20260504193016 | 80 | 325 | 1.7 | 7.0 | 0.00 | 0.00 | 0.00 | ||
| 20260504192536 | 80 | 234 | 0.9 | 2.6 | 0.00 | 0.00 | 0.00 | ||
| 20260504192015 | 80 | 149 | 0.0 | 2.6 | 0.00 | 0.00 | 0.00 | ||
| 20260504191516 | 79 | 211 | 0.9 | 4.3 | 0.00 | 0.00 | 0.00 | ||
| 20260504191015 | 79 | 330 | 0.9 | 3.5 | 0.00 | 0.00 | 0.00 | ||
| 20260504190516 | 79 | 167 | 0.0 | 1.7 | 0.00 | 0.00 | 0.00 | ||
| 20260504190015 | 78 | 152 | 1.7 | 3.5 | 0.00 | 0.00 | 0.00 | ||
| 20260504185516 | 78 | 128 | 0.9 | 3.5 | 0.00 | 0.00 | 0.00 | ||
| 20260504185015 | 78 | 95 | 0.0 | 1.7 | 0.00 | 0.00 | 0.00 | ||
| 20260504184515 | 78 | 351 | 0.9 | 3.5 | 0.00 | 0.00 | 0.00 | ||
| 20260504184015 | 78 | 324 | 2.6 | 7.0 | 0.00 | 0.00 | 0.00 | ||
| 20260504183516 | 78 | 198 | 1.7 | 6.1 | 0.00 | 0.00 | 0.00 | ||
| 20260504183015 | 78 | 230 | 1.7 | 4.3 | 0.00 | 0.00 | 0.00 | ||
| 20260504182536 | 77 | 275 | 1.7 | 4.3 | 0.00 | 0.00 | 0.00 | ||
| 20260504182015 | 77 | 240 | 1.7 | 4.3 | 0.00 | 0.00 | 0.00 | ||
| 20260504181537 | 77 | 257 | 0.9 | 5.2 | 0.00 | 0.00 | 0.00 | ||
| 20260504181016 | 76 | 39 | 0.9 | 3.5 | 0.00 | 0.00 | 0.00 | ||
| 20260504180515 | 75 | 165 | 0.9 | 4.3 | 0.00 | 0.00 | 0.00 | ||
| 20260504180015 | 74 | 65 | 0.9 | 1.7 | 0.00 | 0.00 | 0.00 | ||
| 20260504175516 | 75 | 297 | 0.9 | 2.6 | 0.00 | 0.00 | 0.00 | ||
| 20260504175015 | 74 | 354 | 0.9 | 2.6 | 0.00 | 0.00 | 0.00 | ||
| 20260504174516 | 73 | 8 | 0.9 | 4.3 | 0.00 | 0.00 | 0.00 | ||
| 20260504174057 | 73 | 83 | 0.9 | 5.2 | 0.00 | 0.00 | 0.00 | ||
| 20260504173535 | 73 | 341 | 0.9 | 4.3 | 0.00 | 0.00 | 0.00 | ||
| 20260504173015 | 72 | 295 | 0.9 | 2.6 | 0.00 | 0.00 | 0.00 | ||
| 20260504172515 | 71 | 252 | 0.0 | 2.6 | 0.00 | 0.00 | 0.00 | ||
| 20260504172016 | 71 | 273 | 0.9 | 2.6 | 0.00 | 0.00 | 0.00 | ||
| 20260504171516 | 70 | 281 | 1.7 | 4.3 | 0.00 | 0.00 | 0.00 | ||
| 20260504171015 | 70 | 145 | 0.9 | 2.6 | 0.00 | 0.00 | 0.00 | ||
| 20260504170535 | 69 | 156 | 1.7 | 2.6 | 0.00 | 0.00 | 0.00 | ||
| 20260504151015 | 64 | 234 | 0.9 | 3.5 | 0.00 | 0.00 | 0.00 | ||
| 20260504150516 | 64 | 215 | 0.9 | 5.2 | 0.00 | 0.00 | 0.00 | ||
| 20260504141015 | 59 | 251 | 0.9 | 3.5 | 0.00 | 0.00 | 0.00 | ||
| 20260504140515 | 58 | 211 | 0.9 | 4.3 | 0.00 | 0.00 | 0.00 | ||
| 20260504130515 | 53 | 0.0 | 0.0 | 0.00 | 0.00 | 0.00 | |||
| 20260504110515 | 46 | 0.0 | 0.0 | 0.00 | 0.00 | 0.00 | |||
| 20260504100516 | 47 | 0.0 | 0.0 | 0.00 | 0.00 | 0.00 | |||
| 20260504081516 | 48 | 0.0 | 0.0 | 0.00 | 0.00 | 0.00 | |||
| 20260504081015 | 48 | 0.0 | 0.0 | 0.00 | 0.00 | 0.00 | |||
| 20260504080515 | 48 | 0.0 | 0.0 | 0.00 | 0.00 | 0.00 | |||
| 20260504050515 | 52 | 0.0 | 0.0 | 0.00 | 0.00 | 0.00 | |||
| 20260504050015 | 52 | 0.0 | 0.0 | 0.00 | 0.00 | 0.00 | |||
| 20260504045515 | 52 | 0.0 | 0.0 | 0.00 | 0.00 | 0.00 | |||
| 20260504045015 | 52 | 0.0 | 0.0 | 0.00 | 0.00 | 0.00 | |||
| 20260504044536 | 52 | 0.0 | 0.0 | 0.00 | 0.00 | 0.00 | |||
| 20260504044036 | 53 | 0.0 | 0.0 | 0.00 | 0.00 | 0.00 | |||
| 20260504043515 | 53 | 0.0 | 0.0 | 0.00 | 0.00 | 0.00 | |||
| 20260504043016 | 53 | 0.0 | 0.0 | 0.00 | 0.00 | 0.00 | |||
| 20260504042515 | 53 | 0.0 | 0.0 | 0.00 | 0.00 | 0.00 | |||
| 20260504042016 | 53 | 0.0 | 0.0 | 0.00 | 0.00 | 0.00 | |||
| 20260504041516 | 53 | 0.0 | 0.0 | 0.00 | 0.00 | 0.00 | |||
| 20260504041015 | 53 | 0.0 | 0.0 | 0.00 | 0.00 | 0.00 | |||
| 20260504040535 | 53 | 0.0 | 0.0 | 0.00 | 0.00 | 0.00 | |||
| 20260504040016 | 53 | 0.0 | 0.0 | 0.00 | 0.00 | 0.00 | |||
| 20260504035515 | 54 | 0.0 | 0.0 | 0.00 | 0.00 | 0.00 | |||
| 20260504035015 | 54 | 0.0 | 0.0 | 0.00 | 0.00 | 0.00 | |||
| 20260504034537 | 54 | 0.0 | 0.0 | 0.00 | 0.00 | 0.00 | |||
| 20260504034015 | 54 | 0.0 | 0.0 | 0.00 | 0.00 | 0.00 | |||
| 20260504033516 | 55 | 0.0 | 0.0 | 0.00 | 0.00 | 0.00 | |||
| 20260504033015 | 55 | 0.0 | 0.0 | 0.00 | 0.00 | 0.00 | |||
| 20260504032516 | 55 | 0.0 | 0.0 | 0.00 | 0.00 | 0.00 | |||
| 20260504032016 | 55 | 0.0 | 0.0 | 0.00 | 0.00 | 0.00 | |||
| 20260504031515 | 55 | 0.0 | 0.0 | 0.00 | 0.00 | 0.00 | |||
| 20260504031016 | 55 | 0.0 | 0.0 | 0.00 | 0.00 | 0.00 | |||
| 20260504030515 | 56 | 0.0 | 0.0 | 0.00 | 0.00 | 0.00 | |||
| 20260504030015 | 56 | 0.0 | 0.0 | 0.00 | 0.00 | 0.00 | |||
| 20260504025515 | 56 | 0.0 | 0.0 | 0.00 | 0.00 | 0.00 | |||
| 20260504025016 | 56 | 0.0 | 0.0 | 0.00 | 0.00 | 0.00 | |||
| 20260504024516 | 56 | 0.0 | 0.0 | 0.00 | 0.00 | 0.00 | |||
| 20260504024016 | 57 | 0.0 | 0.0 | 0.00 | 0.00 | 0.00 | |||
| 20260504023516 | 57 | 0.0 | 0.0 | 0.00 | 0.00 | 0.00 | |||
| 20260504023016 | 57 | 0.0 | 0.0 | 0.00 | 0.00 | 0.00 | |||
| 20260504022516 | 57 | 0.0 | 0.0 | 0.00 | 0.00 | 0.00 | |||
| 20260504022015 | 57 | 0.0 | 0.0 | 0.00 | 0.00 | 0.00 | |||
| 20260504021515 | 57 | 0.0 | 0.0 | 0.00 | 0.00 | 0.00 | |||
| 20260504021015 | 58 | 0.0 | 0.0 | 0.00 | 0.00 | 0.00 | |||
| 20260504020517 | 58 | 0.0 | 0.0 | 0.00 | 0.00 | 0.00 | |||
| 20260504020015 | 58 | 0.0 | 0.0 | 0.00 | 0.00 | 0.00 | |||
| 20260504015536 | 58 | 0.0 | 0.0 | 0.00 | 0.00 | 0.00 | |||
| 20260504015015 | 58 | 0.0 | 0.0 | 0.00 | 0.00 | 0.00 | |||
| 20260504014516 | 58 | 0.0 | 0.0 | 0.00 | 0.00 | 0.00 | |||
| 20260504014056 | 59 | 0.0 | 0.0 | 0.00 | 0.00 | 0.00 | |||
| 20260504013516 | 59 | 0.0 | 0.0 | 0.00 | 0.00 | 0.00 | |||
| 20260504013016 | 59 | 0.0 | 0.0 | 0.00 | 0.00 | 0.00 | |||
| 20260504012515 | 60 | 0.0 | 0.0 | 0.00 | 0.00 | 0.00 | |||
| 20260504012016 | 60 | 0.0 | 0.0 | 0.00 | 0.00 | 0.00 | |||
| 20260504011515 | 60 | 0.0 | 0.0 | 0.00 | 0.00 | 0.00 | |||
| 20260504011035 | 61 | 0.0 | 0.0 | 0.00 | 0.00 | 0.00 | |||
| 20260504010516 | 61 | 0.0 | 0.0 | 0.00 | 0.00 | 0.00 | |||
| 20260504010015 | 61 | 0.0 | 0.0 | 0.00 | 0.00 | 0.00 | |||
| 20260504005515 | 62 | 109 | 0.0 | 0.0 | 0.00 | 0.00 | 0.00 | ||
| 20260504005015 | 62 | 0.0 | 0.0 | 0.00 | 0.00 | 0.00 | |||
| 20260504004515 | 62 | 0.0 | 0.0 | 0.00 | 0.00 | 0.00 | |||
| 20260504004016 | 63 | 0.0 | 0.0 | 0.00 | 0.00 | 0.00 | |||
| 20260504003515 | 63 | 0.0 | 0.0 | 0.00 | 0.00 | 0.00 | |||
| 20260504003015 | 63 | 0.0 | 0.0 | 0.00 | 0.00 | 0.00 | |||
| 20260504002515 | 64 | 0.0 | 0.0 | 0.00 | 0.00 | 0.00 | |||
| 20260504002015 | 64 | 164 | 0.0 | 0.9 | 0.00 | 0.00 | 0.00 | ||
| 20260504001536 | 65 | 0.0 | 0.0 | 0.00 | 0.00 | 0.00 | |||
| 20260504001015 | 65 | 181 | 0.0 | 0.9 | 0.00 | 0.00 | 0.00 | ||
| 20260504000516 | 65 | 279 | 0.0 | 1.7 | 0.00 | 0.00 | 0.00 | ||
| 20260504000016 | 66 | 88 | 0.0 | 1.7 | 0.00 | 0.00 | 0.00 | ||
| 20260503235516 | 66 | 90 | 0.0 | 0.9 | 0.00 | 0.00 | 0.00 | ||
| 20260503235035 | 66 | 185 | 0.0 | 1.7 | 0.00 | 0.00 | 0.00 | ||
| 20260503234515 | 67 | 339 | 0.0 | 1.7 | 0.00 | 0.00 | 0.00 | ||
| 20260503234056 | 67 | 199 | 0.0 | 0.9 | 0.00 | 0.00 | 0.00 | ||
| 20260503233516 | 67 | 212 | 0.9 | 3.5 | 0.00 | 0.00 | 0.00 | ||
| 20260503233036 | 68 | 204 | 0.9 | 4.3 | 0.00 | 0.00 | 0.00 | ||
| 20260503232515 | 68 | 191 | 0.9 | 4.3 | 0.00 | 0.00 | 0.00 | ||
| 20260503232016 | 68 | 8 | 0.0 | 2.6 | 0.00 | 0.00 | 0.00 | ||
| 20260503231515 | 69 | 24 | 1.7 | 7.0 | 0.00 | 0.00 | 0.00 | ||
| 20260503231015 | 69 | 221 | 0.9 | 5.2 | 0.00 | 0.00 | 0.00 | ||
| 20260503230516 | 70 | 288 | 0.9 | 3.5 | 0.00 | 0.00 | 0.00 | ||
| 20260503230015 | 70 | 194 | 0.9 | 4.3 | 0.00 | 0.00 | 0.00 | ||
| 20260503225515 | 70 | 215 | 1.7 | 4.3 | 0.00 | 0.00 | 0.00 | ||
| 20260503225016 | 70 | 81 | 1.7 | 4.3 | 0.00 | 0.00 | 0.00 | ||
| 20260503224516 | 70 | 226 | 0.9 | 4.3 | 0.00 | 0.00 | 0.00 | ||
| 20260503224015 | 70 | 232 | 1.7 | 4.3 | 0.00 | 0.00 | 0.00 | ||
| 20260503223515 | 71 | 236 | 0.9 | 3.5 | 0.00 | 0.00 | 0.00 | ||
| 20260503223015 | 70 | 222 | 2.6 | 6.1 | 0.00 | 0.00 | 0.00 | ||
| 20260503222535 | 70 | 206 | 2.6 | 6.1 | 0.00 | 0.00 | 0.00 | ||
| 20260503222015 | 70 | 224 | 0.9 | 3.5 | 0.00 | 0.00 | 0.00 | ||
| 20260503221515 | 71 | 99 | 0.9 | 3.5 | 0.00 | 0.00 | 0.00 | ||
| 20260503221016 | 72 | 43 | 0.9 | 6.1 | 0.00 | 0.00 | 0.00 | ||
| 20260503220515 | 72 | 359 | 1.7 | 5.2 | 0.00 | 0.00 | 0.00 | ||
| 20260503220016 | 72 | 249 | 0.9 | 3.5 | 0.00 | 0.00 | 0.00 | ||
| 20260503215515 | 72 | 234 | 0.9 | 3.5 | 0.00 | 0.00 | 0.00 | ||
| 20260503215016 | 72 | 197 | 1.7 | 3.5 | 0.00 | 0.00 | 0.00 | ||
| 20260503214515 | 73 | 264 | 1.7 | 5.2 | 0.00 | 0.00 | 0.00 | ||
| 20260503214036 | 73 | 248 | 0.9 | 2.6 | 0.00 | 0.00 | 0.00 | ||
| 20260503213515 | 72 | 226 | 1.7 | 2.6 | 0.00 | 0.00 | 0.00 | ||
| 20260503213016 | 72 | 107 | 0.9 | 1.7 | 0.00 | 0.00 | 0.00 | ||
| 20260503212515 | 72 | 182 | 0.9 | 3.5 | 0.00 | 0.00 | 0.00 | ||
| 20260503212015 | 72 | 251 | 2.6 | 7.0 | 0.00 | 0.00 | 0.00 | ||
| 20260503211516 | 73 | 238 | 2.6 | 6.1 | 0.00 | 0.00 | 0.00 | ||
| 20260503211016 | 73 | 172 | 0.9 | 2.6 | 0.00 | 0.00 | 0.00 | ||
| 20260503210515 | 72 | 268 | 0.9 | 3.5 | 0.00 | 0.00 | 0.00 | ||
| 20260503210015 | 72 | 225 | 2.6 | 6.1 | 0.00 | 0.00 | 0.00 | ||
| 20260503205556 | 73 | 207 | 2.6 | 7.0 | 0.00 | 0.00 | 0.00 |